TimePST,TemperatureF,Dew PointF,Humidity,Sea Level PressureIn,VisibilityMPH,Wind Direction,Wind SpeedMPH,Gust SpeedMPH,PrecipitationIn,Events,Conditions,WindDirDegrees,DateUTC
12:53 AM,42.1,41.0,96,30.24,10.0,Calm,Calm,-,0.04,Rain,Light Rain,0,2013-02-28 08:53:00
1:53 AM,41.0,41.0,100,30.24,10.0,Calm,Calm,-,0.04,Rain,Light Rain,0,2013-02-28 09:53:00
2:19 AM,41.0,39.2,93,30.22,10.0,Calm,Calm,-,0.03,Rain,Light Rain,0,2013-02-28 10:19:00
2:42 AM,42.8,39.2,87,30.21,10.0,North,6.9,-,0.05,Rain,Light Rain,360,2013-02-28 10:42:00
2:53 AM,42.1,39.9,92,30.21,10.0,North,5.8,-,0.06,Rain,Light Rain,10,2013-02-28 10:53:00
3:11 AM,41.0,39.2,93,30.19,10.0,North,6.9,-,0.01,Rain,Light Rain,360,2013-02-28 11:11:00
3:53 AM,42.1,41.0,96,30.21,10.0,North,8.1,-,0.05,Rain,Light Rain,360,2013-02-28 11:53:00
4:53 AM,42.1,39.9,92,30.20,10.0,North,5.8,-,0.09,Rain,Light Rain,360,2013-02-28 12:53:00
5:33 AM,42.8,41.0,93,30.18,10.0,North,5.8,-,0.02,Rain,Light Rain,10,2013-02-28 13:33:00
5:40 AM,42.8,41.0,93,30.18,10.0,North,4.6,-,0.02,Rain,Light Rain,10,2013-02-28 13:40:00
5:53 AM,42.8,41.0,93,30.18,10.0,North,4.6,-,N/A,Rain,Light Rain,10,2013-02-28 13:53:00
6:30 AM,42.8,41.0,93,30.18,10.0,North,4.6,-,0.02,Rain,Light Rain,10,2013-02-28 14:30:00
6:53 AM,42.1,39.9,92,30.19,10.0,North,4.6,-,0.05,Rain,Light Rain,10,2013-02-28 14:53:00
7:48 AM,42.8,39.2,87,30.18,10.0,North,3.5,-,0.07,Rain,Light Rain,360,2013-02-28 15:48:00
7:53 AM,42.1,41.0,96,30.19,10.0,North,4.6,-,0.08,Rain,Light Rain,360,2013-02-28 15:53:00
8:10 AM,42.8,41.0,93,30.18,10.0,North,4.6,-,0.02,Rain,Light Rain,360,2013-02-28 16:10:00
8:28 AM,42.8,41.0,93,30.18,10.0,North,3.5,-,0.05,Rain,Light Rain,10,2013-02-28 16:28:00
8:35 AM,42.8,41.0,93,30.18,10.0,North,4.6,-,0.06,Rain,Light Rain,360,2013-02-28 16:35:00
8:53 AM,42.1,41.0,96,30.20,10.0,Calm,Calm,-,0.09,Rain,Light Rain,0,2013-02-28 16:53:00
9:06 AM,42.8,42.8,100,30.18,10.0,Calm,Calm,-,0.02,Rain,Light Rain,0,2013-02-28 17:06:00
9:14 AM,42.8,42.8,100,30.18,10.0,Calm,Calm,-,0.02,Rain,Light Rain,0,2013-02-28 17:14:00
9:46 AM,42.8,41.0,93,30.19,10.0,NNW,4.6,-,0.06,Rain,Light Rain,340,2013-02-28 17:46:00
9:53 AM,43.0,41.0,93,30.20,10.0,Calm,Calm,-,0.06,Rain,Light Rain,0,2013-02-28 17:53:00
10:14 AM,42.8,42.8,100,30.20,10.0,Calm,Calm,-,0.02,Rain,Light Rain,0,2013-02-28 18:14:00
10:53 AM,44.1,43.0,96,30.21,10.0,Calm,Calm,-,0.05,Rain,Light Rain,0,2013-02-28 18:53:00
11:14 AM,44.6,42.8,93,30.20,10.0,Calm,Calm,-,0.01,Rain,Light Rain,0,2013-02-28 19:14:00
11:42 AM,44.6,42.8,93,30.20,10.0,Calm,Calm,-,0.03,Rain,Light Rain,0,2013-02-28 19:42:00
11:53 AM,45.0,43.0,93,30.22,10.0,Calm,Calm,-,0.04,Rain,Light Rain,0,2013-02-28 19:53:00
12:01 PM,44.6,44.6,100,30.21,10.0,Calm,Calm,-,0.00,Rain,Light Rain,0,2013-02-28 20:01:00
12:12 PM,44.6,44.6,100,30.21,10.0,Calm,Calm,-,0.01,Rain,Light Rain,0,2013-02-28 20:12:00
12:53 PM,46.4,44.6,93,30.21,9.0,Calm,Calm,-,N/A,Rain,Light Rain,0,2013-02-28 20:53:00
1:53 PM,46.9,46.0,97,30.23,10.0,Calm,Calm,-,0.05,,Overcast,0,2013-02-28 21:53:00
2:53 PM,48.0,46.9,96,30.25,10.0,SW,3.5,-,0.07,Rain,Light Rain,230,2013-02-28 22:53:00
3:53 PM,48.9,48.0,97,30.27,10.0,South,3.5,-,0.05,Rain,Light Rain,190,2013-02-28 23:53:00
4:53 PM,48.9,48.0,97,30.27,10.0,SSE,3.5,-,0.03,Rain,Light Rain,160,2013-03-01 00:53:00
5:03 PM,48.2,48.2,100,30.25,10.0,Calm,Calm,-,0.01,Rain,Light Rain,0,2013-03-01 01:03:00
5:31 PM,48.2,48.2,100,30.25,9.0,SSW,3.5,-,0.04,Rain,Light Rain,200,2013-03-01 01:31:00
5:53 PM,48.9,48.0,97,30.27,10.0,Calm,Calm,-,0.05,Rain,Light Rain,0,2013-03-01 01:53:00
6:06 PM,48.2,48.2,100,30.26,9.0,SW,3.5,-,0.01,Rain,Light Rain,230,2013-03-01 02:06:00
6:53 PM,48.9,48.9,100,30.28,10.0,SW,4.6,-,0.05,Rain,Light Rain,220,2013-03-01 02:53:00
7:34 PM,48.2,48.2,100,30.27,10.0,SW,8.1,-,0.03,,Overcast,220,2013-03-01 03:34:00
7:53 PM,50.0,48.0,93,30.29,10.0,SW,9.2,-,0.03,,Overcast,230,2013-03-01 03:53:00
8:42 PM,50.0,48.2,94,30.28,10.0,SW,8.1,-,0.01,,Overcast,220,2013-03-01 04:42:00
8:53 PM,50.0,48.0,93,30.30,10.0,SW,12.7,19.6,0.01,,Overcast,220,2013-03-01 04:53:00
9:53 PM,50.0,48.0,93,30.31,10.0,SSW,10.4,-,0.01,Rain,Light Rain,210,2013-03-01 05:53:00
10:53 PM,50.0,48.9,96,30.29,10.0,SSE,6.9,-,0.01,,Overcast,160,2013-03-01 06:53:00
11:53 PM,50.0,48.9,96,30.31,10.0,WSW,6.9,-,0.04,Rain,Light Rain,250,2013-03-01 07:53:00